Regional Weather Roundup
Issued by NWS

Home | Current Version | Previous Version | Text Only | Print | Product List | Glossary Off
Versions: 1 2 3 4 5 6 7 8 9 10 11 12 13 14 15 16 17 18 19 20 21 22 23 24 25 26 27 28 29 30 31 32 33 34 35 36 37 38 39 40 41 42 43 44 45 46 47 48 49 50

513
ASUS43 KLSX 190610
RWRMO

WEATHER SUMMARY FOR MISSOURI
NATIONAL WEATHER SERVICE SPRINGFIELD MO
1200 AM CST SUN FEB 19 2017

NOTE: "FAIR" INDICATES FEW OR NO CLOUDS BELOW 12,000 FEET WITH NO
       SIGNIFICANT WEATHER AND/OR OBSTRUCTIONS TO VISIBILITY.
       CURRENT SKY AND/OR WEATHER CONDITIONS ARE NOT AVAILABLE FOR
       CHILLICOTHE AND FARMINGTON.

MOZ001>031-035>038-043-044-053-054-190700-
...NORTHERN AND WESTERN MISSOURI...

CITY           SKY/WX    TMP DP  RH WIND       PRES   REMARKS
KANSAS CTY INT CLEAR     52  48  86 SW8       29.87R
6HR MIN TEMP:  48; 6HR MAX TEMP:  66;

KANSAS C DTWN  CLEAR     57  49  74 SW6       29.87R
6HR MIN TEMP:  52; 6HR MAX TEMP:  68;

LEE`S SUMMIT   CLEAR     55  50  83 SW10      29.89R
6HR MIN TEMP:  54; 6HR MAX TEMP:  67;

ST JOSEPH      MOCLDY    46  39  76 CALM      29.86R
6HR MIN TEMP:  41; 6HR MAX TEMP:  62;

CHILLICOTHE      N/A     42  36  79 CALM      29.89R
6HR MIN TEMP:  40; 6HR MAX TEMP:  63;

KIRKSVILLE     CLEAR     43  35  73 NE3       29.88R
6HR MIN TEMP:  40; 6HR MAX TEMP:  63;


$$
MOZ066>068-077>081-088>096-101>105-190700-
...SOUTHWEST MISSOURI...

CITY           SKY/WX    TMP DP  RH WIND       PRES   REMARKS
SPRINGFIELD    CLEAR     46  43  89 S6        29.93R
6HR MIN TEMP:  43; 6HR MAX TEMP:  60;

JOPLIN         CLEAR     47  46  97 SE5       29.91F FOG
6HR MIN TEMP:  47; 6HR MAX TEMP:  61;

BRANSON        PTCLDY    52  46  82 CALM      29.96R

$$
MOZ032>034-039>042-045>050-055>058-069>072-190700-
...CENTRAL MISSOURI...

CITY           SKY/WX    TMP DP  RH WIND       PRES   REMARKS
COLUMBIA       CLEAR     54  45  71 S3        29.88R
6HR MIN TEMP:  50; 6HR MAX TEMP:  66;

JEFFERSON CITY CLEAR     42  39  89 SE6       29.89R
6HR MIN TEMP:  42; 6HR MAX TEMP:  68;

ROLLA          CLEAR     50  48  93 S12       29.90R
6HR MIN TEMP:  50; 6HR MAX TEMP:  57;

SEDALIA        CLEAR     55  48  77 SW9       29.91R
6HR MIN TEMP:  54; 6HR MAX TEMP:  67;

WHITEMAN AFB   CLEAR     51  51 100 SW7       29.89R
WARRENSBURG    CLEAR     52  46  82 S6        29.90R
OSAGE BEACH    CLEAR     50  45  83 SE5       29.92R

$$
MOZ051-052-059>065-190700-
...EAST CENTRAL MISSOURI...

CITY           SKY/WX    TMP DP  RH WIND       PRES   REMARKS
ST LOUIS INTL  CLEAR     51  47  86 SE3       29.91R
6HR MIN TEMP:  49; 6HR MAX TEMP:  59;

SPIRIT OF STL  CLEAR     49  47  93 W3        29.90R
6HR MIN TEMP:  47; 6HR MAX TEMP:  59;

ST CHARLES     FOG       40  40 100 E7        29.90R VSB 1/4
6HR MIN TEMP:  37; 6HR MAX TEMP:  56;


$$
MOZ072>076-082>087-097>100-106>115-190700-
...SOUTH CENTRAL AND SOUTHEAST MISSOURI...

CITY           SKY/WX    TMP DP  RH WIND       PRES   REMARKS
CAPE GIRARDEAU FOG       50  49  96 CALM      29.95S VSB 1/4
6HR MIN TEMP:  49; 6HR MAX TEMP:  51;

FARMINGTON     CLOUDY    52  51  97 SW9       29.94R
6HR MIN TEMP:  51; 6HR MAX TEMP:  52;

POPLAR BLUFF   FOG       48  48 100 CALM      29.95R VSB 1/4
6HR MIN TEMP:  48; 6HR MAX TEMP:  53;

WEST PLAINS    FOG       48  48 100 CALM      29.96R VSB 1/4
6HR MIN TEMP:  48; 6HR MAX TEMP:  55;


$$




USA.gov is the U.S. government's official web portal to all federal, state and local government web resources and services.